Regional Weather Roundup
Issued by NWS

Home | Current Version | Previous Version | Text Only | Print | Product List | Glossary Off
Versions: 1 2 3 4 5 6 7 8 9 10 11 12 13 14 15 16 17 18 19 20 21 22 23 24 25 26 27

000
ASUS45 KPSR 191110
RWRAZ

ARIZONA HOURLY REGIONAL WEATHER ROUNDUP
NATIONAL WEATHER SERVICE PHOENIX AZ
400 AM MST SAT AUG 19 2017

NOTE: FAIR INDICATES FEW OR NO CLOUDS BELOW 12,000 FEET WITH NO
SIGNIFICANT WEATHER AND/OR OBSTRUCTIONS TO VISIBILITY.

AZZ001>003-036-191200-
NORTHWEST ARIZONA

CITY           SKY/WX    TMP DP  RH WIND       PRES   REMARKS
BULLHEAD CITY  CLEAR     84  36  17 CALM      29.81F
KINGMAN        CLEAR     69  36  29 S7        30.03S
$$

AZZ004>008-015-016-018-191200-
NORTH CENTRAL ARIZONA

CITY           SKY/WX    TMP DP  RH WIND       PRES   REMARKS
GRAND CANYON   CLEAR     44  33  65 CALM      30.27F
WILLIAMS       CLEAR     48  37  66 S8        30.28S
PRESCOTT       CLEAR     57  40  52 S7        30.16S
FLAGSTAFF      PTCLDY    51  35  54 CALM      30.30S
PAYSON           N/A     64  32  29 NW3       30.17S
PAGE           CLEAR     77  38  24 N5        30.05S
$$

AZZ009>014-017-191200-
NORTHEAST ARIZONA

CITY           SKY/WX    TMP DP  RH WIND       PRES   REMARKS
WINSLOW        CLEAR     57  36  45 SW8       30.14S
SAINT JOHNS    PTCLDY    61  37  41 E5        30.21R
WINDOW ROCK    CLEAR     48  30  49 CALM      30.26S
SHOW LOW       PTCLDY    61  34  36 CALM      30.26R
$$

AZZ540-542>544-546-548-191200-
GREATER PHOENIX AREA

CITY           SKY/WX    TMP DP  RH WIND       PRES   REMARKS
PHOENIX        PTCLDY    83  51  33 SW5       29.84R
BUCKEYE        CLEAR     79  48  34 CALM      29.86R
LUKE AFB       CLEAR     78  53  41 CALM      29.85R
DEER VALLEY    CLEAR     78  35  21 CALM      29.87R
SCOTTSDALE     CLEAR     80  47  31 CALM      29.89R
MESA-GATEWAY   CLEAR     75  50  41 SE7       29.89R
$$

AZZ539-553-191200-
SOUTHWEST MARICOPA COUNTY AND PINAL COUNTY

CITY           SKY/WX    TMP DP  RH WIND       PRES   REMARKS
CASA GRANDE    PTCLDY    80  53  39 SE7       29.90R
GILA BEND      FAIR      80  49  33 CALM      29.84S
$$

AZZ503-504-507>509-191200-
SOUTHEAST ARIZONA

CITY           SKY/WX    TMP DP  RH WIND       PRES   REMARKS
TUCSON         NOT AVBL
DAVIS-MONTHAN  PTCLDY    74  47  39 S7        30.00R
NOGALES        PTCLDY    67  51  56 NE3       30.11R
SIERRA VISTA   CLOUDY    67  46  45 CALM      30.15S
DOUGLAS        CLOUDY    74  65  73 SW12      30.11S
SAFFORD        MOCLDY    70  43  37 CALM      30.00R
$$

AZZ532-191200-
SOUTHWEST ARIZONA

CITY           SKY/WX    TMP DP  RH WIND       PRES   REMARKS
YUMA           CLEAR     83  51  33 N5        29.79S
$$

CAZ041-043-047-048-061-525>527-560>570-191200-
SOUTHERN CALIFORNIA

CITY           SKY/WX    TMP DP  RH WIND       PRES   REMARKS
DOWNTOWN L.A.  CLOUDY    67  61  81 CALM      29.94S
L.A. AIRPORT   CLOUDY    66  62  87 W3        29.94F
SAN DIEGO      CLOUDY    68  61  78 CALM      29.96S
BURBANK        CLEAR     63  59  87 S3        29.94S
ONTARIO        CLEAR     65  60  84 W7        29.94S
RIVERSIDE      CLEAR     65  61  87 CALM      29.94S
PALM SPRINGS   CLEAR     81  60  48 CALM      29.82S
EL CENTRO NAS  CLEAR     80  46  30 NE3       29.78S
IMPERIAL       CLEAR     83  56  39 E3        29.76S
BLYTHE         CLEAR     82  55  39 SE6       29.80S
NEEDLES        CLEAR     87  36  16 S5        29.82S
$$

NVZ020-UTZ003-191200-
SOUTHERN NEVADA-UTAH

CITY           SKY/WX    TMP DP  RH WIND       PRES   REMARKS
LAS VEGAS      CLEAR     84  38  19 SW5       29.90S
SALT LAKE CITY CLEAR     68  39  34 SE8       30.05F
$$

NMZ009-TXZ055-191200-
NEW MEXICO-WEST TEXAS

CITY           SKY/WX    TMP DP  RH WIND       PRES   REMARKS
ALBUQUERQUE    MOCLDY    72  51  47 SE6       30.18S
EL PASO        MOCLDY    72  62  71 SE3       30.09S
$$


........................KEY........................
SKY/WX - SKY CONDITION/WEATHER
TMP    - TEMPERATURE IN FAHRENHEIT
DP     - DEW POINT IN FAHRENHEIT
RH     - RELATIVE HUMIDITY IN PERCENT
WIND   - DIRECTION AND SPEED IN MILES PER HOUR (MPH)
VRB    - VARIABLE WIND DIRECTION
PRES   - MEAN SEA LEVEL PRESSURE IN INCHES OF MERCURY
         F - FALLING PRESSURE   R - RISING PRESSURE
         S - STEADY PRESSURE
VSB    - VISIBILITY IN MILES
HX     - HEAT INDEX IN FAHRENHEIT
WCI    - WIND CHILL INDEX IN FAHRENHEIT
TC     - TEMPERATURE IN CELSIUS WHICH IS ALSO KNOWN AS
         TEMPERATURE IN CENTIGRADE
AFB    - AIR FORCE BASE
         LUKE AFB IS LUKE AIR FORCE BASE
         DAVIS-MONTHAN IS DAVIS-MONTHAN AIR FORCE BASE
NAS    - NAVAL AIR STATION
         EL CENTRO NAS IS EL CENTRO NAVAL AIR STATION
N/A    - NOT AVAILABLE





USA.gov is the U.S. government's official web portal to all federal, state and local government web resources and services.